period_start,C,m1,H,J0,J1,J2,J3,J4,J5,JA,JB,JC,JD,JJ,JK,JN,#
2015-12-26 00:02:15,0.20,8.52,0.00,12.31,16.74,20.74,15.16,52.69,1010.28,2071.05,1592.13,1582.38,1765.18,600.06,614.60,33.59,0000 0000 0000 0000 000000
2015-12-26 00:07:16,0.22,8.53,0.00,12.31,16.75,20.66,15.12,52.60,1010.27,2071.05,1590.51,1581.31,1763.91,599.86,614.39,33.64,0000 0000 0000 0000 000000
2015-12-26 00:12:18,0.22,8.54,0.00,12.33,16.77,20.73,15.17,52.68,1010.27,2071.04,1588.85,1580.21,1762.70,599.85,614.24,33.69,0000 0000 0000 0000 000000
2015-12-26 00:17:19,0.20,8.55,0.00,12.35,16.77,20.70,15.20,52.70,1010.27,2071.07,1587.39,1579.22,1761.57,600.00,614.30,33.74,0000 0000 0000 0000 000000
2015-12-26 00:22:20,0.18,8.56,0.00,12.37,16.78,20.69,15.22,52.80,1010.28,2071.07,1586.00,1578.31,1760.52,599.99,614.41,33.79,0000 0000 0000 0000 000000
2015-12-26 00:27:21,0.21,8.57,0.00,12.36,16.79,20.75,15.16,52.87,1010.27,2071.03,1584.66,1577.25,1759.33,599.91,614.20,33.84,0000 0000 0000 0000 000000
2015-12-26 00:32:22,0.19,8.58,0.00,12.40,16.80,20.72,15.22,52.99,1010.21,2071.02,1583.32,1576.25,1757.95,599.96,614.18,33.89,0000 0000 0000 0000 000000
2015-12-26 00:37:24,0.22,8.60,0.00,12.43,16.82,20.75,15.07,52.96,1010.27,2071.00,1581.82,1575.09,1756.67,600.04,614.20,33.94,0000 0000 0000 0000 000000
2015-12-26 00:42:25,0.20,8.61,0.00,12.40,16.82,20.83,15.12,52.86,1010.27,2071.00,1580.26,1574.01,1755.45,599.94,614.29,33.99,0000 0000 0000 0000 000000
2015-12-26 00:47:27,0.25,8.62,0.00,12.37,16.84,20.81,15.13,52.90,1010.27,2071.00,1578.69,1572.81,1754.10,599.98,614.34,34.05,0000 0000 0000 0000 000000
2015-12-26 00:52:28,0.23,8.63,0.00,12.38,16.84,20.73,15.09,52.74,1010.20,2071.00,1577.11,1571.66,1752.70,599.72,614.06,34.10,0000 0000 0000 0000 000000
2015-12-26 00:57:29,0.21,8.64,0.00,12.43,16.84,20.81,15.11,52.64,1010.26,2070.99,1575.63,1570.65,1751.52,599.80,614.03,34.15,0000 0000 0000 0000 000000
2015-12-26 01:02:31,0.21,8.65,0.00,12.46,16.87,20.81,15.24,52.80,1010.24,2070.99,1574.02,1569.58,1750.32,600.04,614.22,34.20,0000 0000 0000 0000 000000
2015-12-26 01:07:32,0.20,8.66,0.00,12.47,16.87,20.84,15.17,52.81,1010.27,2070.99,1572.55,1568.62,1749.13,600.26,614.37,34.25,0000 0000 0000 0000 000000
2015-12-26 01:12:33,0.21,8.67,0.00,12.46,16.87,20.81,15.13,52.63,1010.03,2070.99,1571.01,1567.57,1747.92,599.88,613.91,34.30,0000 0000 0000 0000 000000
2015-12-26 01:17:35,0.22,8.68,0.00,12.50,16.89,20.86,15.19,52.60,1009.83,2070.98,1569.54,1566.44,1746.77,600.09,613.87,34.35,0000 0000 0000 0000 000000
2015-12-26 01:22:36,0.21,8.70,0.00,12.52,16.89,20.89,15.12,52.76,1009.84,2070.98,1567.96,1565.42,1745.56,599.79,613.57,34.40,0000 0000 0000 0000 000000
2015-12-26 01:27:37,0.21,8.71,0.00,12.50,16.91,20.86,15.02,52.77,1009.79,2070.97,1566.33,1564.32,1744.29,599.67,613.50,34.45,0000 0000 0000 0000 000000
2015-12-26 01:32:39,0.19,8.72,0.00,12.50,16.92,20.86,15.10,52.83,1009.78,2070.95,1564.90,1563.31,1743.17,599.91,613.72,34.50,0000 0000 0000 0000 000000
2015-12-26 01:37:40,0.19,8.73,0.00,12.51,16.93,20.83,15.11,52.86,1009.79,2070.94,1563.63,1562.46,1742.12,600.00,613.80,34.55,0000 0000 0000 0000 000000
2015-12-26 01:42:42,0.18,8.74,0.00,12.51,16.94,20.96,15.11,52.85,1009.88,2070.95,1562.33,1561.61,1741.11,599.83,613.73,34.60,0000 0000 0000 0000 000000
2015-12-26 01:47:43,0.17,8.75,0.00,12.54,16.95,20.96,15.11,52.86,1009.80,2070.93,1560.98,1560.73,1740.16,599.91,613.73,34.65,0000 0000 0000 0000 000000
2015-12-26 01:52:44,0.20,8.75,0.00,12.54,16.97,20.98,15.12,52.79,1009.78,2070.78,1559.59,1559.72,1738.95,600.15,613.80,34.70,0000 0000 0000 0000 000000
2015-12-26 01:57:46,0.20,8.76,0.00,12.56,16.97,20.97,15.14,52.95,1009.83,2070.79,1558.16,1558.77,1737.76,600.09,613.79,34.75,0000 0000 0000 0000 000000
2015-12-26 02:02:48,0.11,8.77,0.00,12.60,16.99,21.01,15.07,52.96,1009.72,2070.63,1557.00,1557.95,1736.79,599.95,613.38,34.80,0000 0000 0000 0000 000000
2015-12-26 02:07:49,0.14,8.78,0.00,12.62,16.99,20.90,15.09,53.08,1009.31,2070.44,1555.91,1557.06,1735.82,600.23,613.54,34.85,0000 0000 0000 0000 000000
2015-12-26 02:12:50,0.20,8.79,0.00,12.62,17.01,21.04,15.08,53.17,1009.32,2070.41,1554.68,1556.10,1734.79,600.25,613.52,34.91,0000 0000 0000 0000 000000
2015-12-26 02:17:51,0.17,8.80,0.00,12.61,17.02,21.01,15.14,53.14,1009.30,2070.22,1553.38,1555.12,1733.66,600.03,613.28,34.96,0000 0000 0000 0000 000000
2015-12-26 02:22:52,0.16,8.81,0.00,12.63,17.04,20.95,15.18,53.16,1009.25,2070.08,1552.08,1554.24,1732.57,600.18,613.34,35.01,0000 0000 0000 0000 000000
2015-12-26 02:27:53,0.19,8.82,0.00,12.64,17.04,21.03,15.15,53.04,1009.28,2070.04,1550.78,1553.37,1731.52,599.91,613.10,35.06,0000 0000 0000 0000 000000
2015-12-26 02:32:55,0.20,8.82,0.00,12.63,17.05,21.01,15.17,53.09,1009.29,2070.02,1549.45,1552.44,1730.49,600.21,613.35,35.11,0000 0000 0000 0000 000000
2015-12-26 02:37:56,0.15,8.83,0.00,12.62,17.07,21.01,15.05,52.98,1009.29,2070.01,1548.25,1551.71,1729.46,600.09,613.40,35.16,0000 0000 0000 0000 000000
2015-12-26 02:42:57,0.16,8.84,0.00,12.62,17.07,21.02,15.12,52.85,1009.49,2070.01,1546.93,1550.86,1728.51,600.21,613.51,35.21,0000 0000 0000 0000 000000
2015-12-26 02:47:59,0.18,8.85,0.00,12.62,17.07,21.00,15.16,52.94,1009.60,2070.00,1545.71,1549.95,1727.58,600.31,613.65,35.26,0000 0000 0000 0000 000000
2015-12-26 02:53:00,0.17,8.86,0.00,12.61,17.09,21.03,15.01,52.77,1009.67,2070.00,1544.56,1549.08,1726.68,599.86,613.34,35.31,0000 0000 0000 0000 000000
2015-12-26 02:58:01,0.18,8.87,0.00,12.59,17.09,21.04,15.10,52.80,1009.65,2070.00,1543.34,1548.22,1725.70,599.87,613.40,35.36,0000 0000 0000 0000 000000
2015-12-26 03:03:03,0.19,8.88,0.00,12.61,17.09,21.01,15.07,52.83,1009.41,2070.00,1541.99,1547.32,1724.63,600.07,613.43,35.41,0000 0000 0000 0000 000000
2015-12-26 03:08:04,0.18,8.89,0.00,12.62,17.09,21.04,15.01,52.73,1009.37,2070.00,1540.75,1546.59,1723.69,599.74,613.03,35.46,0000 0000 0000 0000 000000
2015-12-26 03:13:05,0.17,8.90,0.00,12.57,17.10,21.08,15.22,52.92,1009.55,2070.00,1539.61,1545.71,1722.71,600.30,613.62,35.51,0000 0000 0000 0000 000000
2015-12-26 03:18:07,0.16,8.91,0.00,12.57,17.12,21.10,15.12,52.88,1009.43,2070.00,1538.48,1544.81,1721.69,599.98,613.41,35.56,0000 0000 0000 0000 000000
2015-12-26 03:23:08,0.16,8.92,0.00,12.60,17.12,21.04,15.14,52.87,1009.70,2070.00,1537.10,1543.98,1720.70,599.97,613.62,35.61,0000 0000 0000 0000 000000
2015-12-26 03:28:09,0.20,8.93,0.00,12.60,17.12,21.04,15.10,53.01,1009.78,2070.00,1535.79,1543.07,1719.72,599.88,613.52,35.66,0000 0000 0000 0000 000000
2015-12-26 03:33:11,0.18,8.93,0.00,12.57,17.12,21.07,15.22,53.08,1009.78,2069.99,1534.64,1542.15,1718.78,600.44,614.10,35.71,0000 0000 0000 0000 000000
2015-12-26 03:38:12,0.20,8.94,0.00,12.59,17.12,21.09,15.10,53.17,1009.49,2069.99,1533.25,1541.22,1717.66,599.88,613.21,35.76,0000 0000 0000 0000 000000
2015-12-26 03:43:13,0.29,8.96,0.00,12.61,17.12,21.10,15.14,53.11,1009.33,2069.99,1531.61,1539.75,1715.93,599.88,613.15,35.82,0000 0000 0000 0000 000000
2015-12-26 03:48:15,0.17,8.97,0.00,12.62,17.14,21.08,15.17,52.98,1009.68,2069.99,1530.31,1538.86,1714.91,600.27,613.71,35.87,0000 0000 0000 0000 000000
2015-12-26 03:53:16,0.18,8.98,0.00,12.66,17.14,21.11,15.11,53.00,1009.43,2069.99,1529.14,1537.91,1713.82,599.97,613.17,35.92,0000 0000 0000 0000 000000
2015-12-26 03:58:17,0.18,8.99,0.00,12.67,17.15,21.09,15.10,52.87,1009.31,2069.99,1527.85,1536.96,1712.84,599.74,612.93,35.97,0000 0000 0000 0000 000000
2015-12-26 04:03:19,0.20,9.00,0.00,12.67,17.17,21.10,15.03,52.87,1009.30,2069.98,1526.57,1536.08,1711.85,599.73,612.74,36.02,0000 0000 0000 0000 000000
2015-12-26 04:08:20,0.19,9.01,0.00,12.69,17.17,21.12,15.13,53.13,1009.31,2069.98,1525.26,1535.27,1710.78,600.08,613.16,36.07,0000 0000 0000 0000 000000
2015-12-26 04:13:22,0.18,9.01,0.00,12.72,17.17,21.22,15.14,53.09,1009.29,2069.97,1523.93,1534.56,1709.72,600.40,613.31,36.12,0000 0000 0000 0000 000000
2015-12-26 04:18:23,0.21,9.02,0.00,12.72,17.19,21.24,15.04,53.08,1009.15,2069.96,1522.60,1533.62,1708.66,599.87,612.90,36.17,0000 0000 0000 0000 000000
2015-12-26 04:23:24,0.16,9.03,0.00,12.71,17.19,21.12,15.08,53.35,1009.27,2069.97,1521.34,1532.77,1707.62,599.83,612.86,36.22,0000 0000 0000 0000 000000
2015-12-26 04:28:25,0.16,9.05,0.00,12.73,17.21,21.14,15.17,53.17,1009.29,2069.97,1520.15,1531.97,1706.64,600.03,613.03,36.27,0000 0000 0000 0000 000000
2015-12-26 04:33:26,0.19,9.05,0.00,12.78,17.22,21.18,15.16,53.21,1009.28,2069.95,1518.91,1531.07,1705.64,600.17,612.96,36.32,0000 0000 0000 0000 000000
2015-12-26 04:38:28,0.19,9.06,0.00,12.78,17.22,21.24,15.18,53.13,1009.28,2069.87,1517.57,1530.16,1704.49,600.01,613.07,36.37,0000 0000 0000 0000 000000
2015-12-26 04:43:29,0.17,9.07,0.00,12.78,17.24,21.28,15.12,53.03,1009.30,2069.82,1516.46,1529.29,1703.56,599.82,612.74,36.42,0000 0000 0000 0000 000000
2015-12-26 04:48:30,0.21,9.08,0.00,12.78,17.24,21.22,15.09,52.94,1009.24,2069.76,1515.03,1528.31,1702.35,600.12,612.94,36.47,0000 0000 0000 0000 000000
2015-12-26 04:53:32,0.15,9.09,0.00,12.82,17.26,21.19,15.06,53.01,1009.09,2069.50,1513.65,1527.39,1701.30,600.04,612.75,36.52,0000 0000 0000 0000 000000
2015-12-26 04:58:33,0.17,9.10,0.00,12.82,17.27,21.21,15.11,53.23,1008.92,2069.42,1512.45,1526.63,1700.39,599.74,612.39,36.57,0000 0000 0000 0000 000000
2015-12-26 05:03:34,0.17,9.11,0.00,12.81,17.27,21.26,15.20,53.01,1008.82,2069.21,1511.08,1525.64,1699.16,600.24,612.82,36.62,0000 0000 0000 0000 000000
2015-12-26 05:08:35,0.16,9.12,0.00,12.81,17.29,21.24,15.11,52.94,1008.84,2069.11,1509.84,1524.78,1698.16,600.02,612.52,36.68,0000 0000 0000 0000 000000
2015-12-26 05:13:37,0.18,9.13,0.00,12.81,17.29,21.28,15.15,53.05,1008.83,2069.09,1508.56,1523.90,1697.17,600.06,612.64,36.73,0000 0000 0000 0000 000000
2015-12-26 05:18:38,0.17,9.14,0.00,12.83,17.31,21.26,15.12,53.14,1008.91,2069.05,1507.33,1522.99,1696.17,600.05,612.57,36.78,0000 0000 0000 0000 000000
2015-12-26 05:23:40,0.20,9.15,0.00,12.83,17.32,21.27,15.12,53.24,1009.16,2069.01,1505.91,1522.03,1695.06,600.04,612.67,36.83,0000 0000 0000 0000 000000
2015-12-26 05:28:42,0.20,9.16,0.00,12.83,17.32,21.33,15.03,53.26,1009.28,2069.01,1504.67,1521.07,1694.01,599.81,612.56,36.88,0000 0000 0000 0000 000000
2015-12-26 05:33:43,0.19,9.17,0.00,12.83,17.34,21.27,15.17,53.06,1009.28,2069.03,1503.38,1520.20,1692.96,600.19,612.94,36.93,0000 0000 0000 0000 000000
2015-12-26 05:38:45,0.25,9.18,0.00,12.82,17.34,21.29,15.05,53.17,1009.30,2069.00,1501.65,1519.32,1691.77,599.92,612.76,36.98,0000 0000 0000 0000 000000
2015-12-26 05:43:46,0.20,9.19,0.00,12.81,17.35,21.34,15.17,53.20,1009.30,2069.00,1500.18,1518.23,1690.67,600.20,612.96,37.03,0000 0000 0000 0000 000000
2015-12-26 05:48:48,0.20,9.20,0.00,12.82,17.37,21.33,15.08,53.14,1009.34,2069.00,1498.89,1517.32,1689.63,600.13,613.04,37.08,0000 0000 0000 0000 000000
2015-12-26 05:53:49,0.20,9.21,0.00,12.82,17.37,21.33,15.05,52.83,1009.60,2069.00,1497.65,1516.46,1688.54,600.08,613.22,37.13,0000 0000 0000 0000 000000
2015-12-26 05:58:50,0.17,9.22,0.00,12.83,17.37,21.30,15.16,52.98,1009.51,2069.00,1496.36,1515.63,1687.62,600.21,613.13,37.18,0000 0000 0000 0000 000000
2015-12-26 06:03:51,0.15,9.23,0.00,12.85,17.39,21.32,15.06,53.06,1009.36,2069.00,1495.13,1514.86,1686.59,599.75,612.37,37.23,0000 0000 0000 0000 000000
2015-12-26 06:08:52,0.18,9.24,0.00,12.88,17.39,21.36,15.06,52.98,1009.43,2069.00,1493.93,1514.02,1685.66,599.83,612.61,37.28,0000 0000 0000 0000 000000
2015-12-26 06:13:54,0.22,9.25,0.00,12.86,17.39,21.30,15.15,52.92,1009.50,2068.99,1492.60,1513.16,1684.60,600.10,612.92,37.33,0000 0000 0000 0000 000000
2015-12-26 06:18:55,0.19,9.26,0.00,12.85,17.41,21.37,15.12,52.92,1009.39,2068.99,1491.19,1512.17,1683.57,600.17,612.96,37.38,0000 0000 0000 0000 000000
2015-12-26 06:23:57,0.19,9.27,0.00,12.88,17.42,21.37,15.08,53.01,1009.39,2068.99,1489.89,1511.30,1682.60,599.72,612.36,37.43,0000 0000 0000 0000 000000
2015-12-26 06:28:58,0.22,9.28,0.00,12.91,17.42,21.28,15.23,53.27,1009.53,2068.99,1488.58,1510.35,1681.50,600.47,613.16,37.48,0000 0000 0000 0000 000000
2015-12-26 06:33:59,0.17,9.28,0.00,12.93,17.43,21.34,15.19,53.36,1009.33,2068.98,1487.59,1509.49,1680.50,599.89,612.56,37.54,0000 0000 0000 0000 000000
2015-12-26 06:39:01,0.16,9.29,0.00,12.97,17.44,21.40,15.14,53.18,1009.30,2068.99,1486.46,1508.74,1679.59,599.99,612.51,37.59,0000 0000 0000 0000 000000
2015-12-26 06:44:02,0.16,9.30,0.00,12.96,17.45,21.38,15.04,52.98,1009.29,2068.96,1485.13,1507.91,1678.64,599.93,612.50,37.64,0000 0000 0000 0000 000000
2015-12-26 06:49:03,0.21,9.31,0.00,12.97,17.47,21.41,15.05,53.20,1009.24,2068.97,1483.80,1506.96,1677.58,599.68,612.13,37.69,0000 0000 0000 0000 000000
2015-12-26 06:54:05,0.19,9.32,0.00,12.98,17.47,21.37,15.11,53.17,1008.80,2068.93,1482.53,1506.06,1676.62,600.04,612.14,37.74,0000 0000 0000 0000 000000
2015-12-26 06:59:06,0.19,9.33,0.00,13.02,17.49,21.46,15.15,53.39,1008.36,2068.92,1481.32,1505.17,1675.66,600.24,612.04,37.79,0000 0000 0000 0000 000000
2015-12-26 07:04:07,0.16,9.34,0.00,13.01,17.49,21.48,15.23,53.24,1008.62,2068.84,1480.07,1504.38,1674.65,600.10,612.09,37.84,0000 0000 0000 0000 000000
2015-12-26 07:09:09,0.16,9.35,0.00,13.02,17.51,21.44,15.15,53.19,1008.80,2068.72,1478.87,1503.61,1673.57,600.13,612.25,37.89,0000 0000 0000 0000 000000
2015-12-26 07:14:10,0.21,9.36,0.00,13.04,17.52,21.48,15.01,53.16,1008.93,2068.59,1477.55,1502.62,1672.57,599.79,611.90,37.94,0000 0000 0000 0000 000000
2015-12-26 07:19:11,0.12,9.37,0.00,13.04,17.53,21.43,15.06,53.05,1008.86,2068.39,1476.36,1501.85,1671.63,599.70,611.77,37.99,0000 0000 0000 0000 000000
2015-12-26 07:24:12,0.14,9.38,0.00,13.02,17.54,21.47,15.03,53.22,1008.58,2068.19,1475.20,1501.02,1670.70,599.80,611.70,38.04,0000 0000 0000 0000 000000
2015-12-26 07:29:13,0.19,9.39,0.00,13.04,17.55,21.53,15.05,53.17,1008.56,2068.23,1473.90,1500.16,1669.79,599.80,611.70,38.09,0000 0000 0000 0000 000000
2015-12-26 07:34:15,0.21,9.39,0.00,13.02,17.57,21.51,15.02,53.21,1008.80,2068.07,1472.57,1499.26,1668.73,599.65,611.68,38.14,0000 0000 0000 0000 000000
2015-12-26 07:39:16,0.17,9.40,0.00,13.02,17.57,21.52,15.10,53.33,1008.85,2068.03,1471.42,1498.54,1667.70,600.30,612.36,38.19,0000 0000 0000 0000 000000
2015-12-26 07:44:17,0.13,9.41,0.00,13.03,17.59,21.57,15.16,53.30,1009.00,2068.03,1470.13,1497.85,1666.86,600.11,612.35,38.24,0000 0000 0000 0000 000000
2015-12-26 07:49:19,0.17,9.42,0.00,13.03,17.59,21.50,15.01,53.27,1009.15,2068.00,1469.07,1497.00,1665.93,600.05,612.29,38.29,0000 0000 0000 0000 000000
2015-12-26 07:54:20,0.19,9.43,0.00,13.04,17.59,21.52,15.04,53.42,1008.87,2068.01,1467.97,1496.13,1664.98,600.03,612.05,38.34,0000 0000 0000 0000 000000
2015-12-26 07:59:21,0.19,9.44,0.00,13.04,17.61,21.49,15.06,53.32,1008.81,2068.00,1466.80,1495.42,1664.08,599.61,611.81,38.39,0000 0000 0000 0000 000000
2015-12-26 08:04:22,0.20,9.45,0.00,13.05,17.62,21.49,15.07,53.29,1008.89,2068.00,1465.57,1494.58,1663.18,599.72,611.81,38.45,0000 0000 0000 0000 000000
2015-12-26 08:09:24,0.18,9.46,0.00,13.07,17.62,21.54,15.09,53.16,1008.83,2068.00,1464.39,1493.68,1662.21,600.02,611.94,38.50,0000 0000 0000 0000 000000
2015-12-26 08:14:25,0.16,9.47,0.00,13.02,17.62,21.49,15.11,53.48,1008.80,2068.00,1463.09,1492.93,1661.11,599.77,611.83,38.55,0000 0000 0000 0000 000000
2015-12-26 08:19:27,0.20,9.48,0.00,13.01,17.62,21.54,15.07,53.33,1008.74,2068.00,1461.87,1492.02,1660.13,600.12,612.20,38.60,0000 0000 0000 0000 000000
2015-12-26 08:24:28,0.22,9.49,0.00,13.00,17.62,21.55,15.12,53.24,1008.66,2068.00,1460.61,1491.03,1659.07,599.94,611.93,38.65,0000 0000 0000 0000 000000
2015-12-26 08:29:30,0.20,9.50,0.00,13.01,17.62,21.57,15.08,53.27,1008.76,2068.00,1459.25,1490.07,1657.99,600.25,612.32,38.70,0000 0000 0000 0000 000000
2015-12-26 08:34:31,0.21,9.51,0.00,13.03,17.63,21.52,15.06,53.09,1008.81,2068.00,1457.87,1489.15,1657.01,599.94,612.04,38.75,0000 0000 0000 0000 000000
2015-12-26 08:39:33,0.21,9.52,0.00,13.03,17.64,21.57,15.12,53.21,1008.94,2068.00,1456.53,1488.32,1656.04,599.99,612.23,38.80,0000 0000 0000 0000 000000
2015-12-26 08:44:34,0.17,9.53,0.00,13.02,17.64,21.52,15.08,53.19,1009.01,2068.00,1455.41,1487.59,1655.11,599.91,612.07,38.85,0000 0000 0000 0000 000000
2015-12-26 08:49:36,0.16,9.54,0.00,13.04,17.64,21.51,15.07,53.31,1009.27,2068.00,1454.21,1486.78,1654.16,599.95,612.25,38.90,0000 0000 0000 0000 000000
2015-12-26 08:54:37,0.17,9.55,0.00,13.03,17.64,21.55,15.11,53.22,1009.30,2068.00,1452.96,1485.98,1653.22,599.86,612.27,38.95,0000 0000 0000 0000 000000
2015-12-26 08:59:38,0.20,9.56,0.00,13.04,17.64,21.57,15.04,53.23,1009.32,2068.00,1451.78,1485.12,1652.29,599.88,612.23,39.00,0000 0000 0000 0000 000000
2015-12-26 09:04:40,0.19,9.57,0.00,13.02,17.65,21.61,15.12,53.26,1009.48,2068.00,1450.64,1484.47,1651.39,599.81,612.30,39.05,0000 0000 0000 0000 000000
2015-12-26 09:09:41,0.15,9.57,0.00,13.05,17.67,21.58,15.10,53.32,1009.31,2068.00,1449.63,1483.75,1650.54,600.14,612.46,39.10,0000 0000 0000 0000 000000
2015-12-26 09:14:42,0.17,9.58,0.00,13.08,17.67,21.56,15.16,53.52,1009.22,2068.00,1448.50,1482.90,1649.60,600.20,612.43,39.15,0000 0000 0000 0000 000000
2015-12-26 09:19:44,0.17,9.60,0.00,13.12,17.68,21.64,15.03,53.55,1009.23,2068.00,1447.27,1482.07,1648.71,599.87,612.16,39.20,0000 0000 0000 0000 000000
2015-12-26 09:24:45,0.17,9.60,0.00,13.09,17.69,21.62,15.11,53.52,1008.95,2067.99,1446.13,1481.28,1647.89,600.11,612.20,39.25,0000 0000 0000 0000 000000
2015-12-26 09:29:47,0.18,9.61,0.00,13.07,17.69,21.63,15.10,53.47,1008.84,2067.99,1444.99,1480.57,1646.98,600.02,611.94,39.31,0000 0000 0000 0000 000000
2015-12-26 09:34:48,0.16,9.62,0.00,13.12,17.71,21.65,15.06,53.63,1009.08,2067.99,1443.86,1479.87,1646.07,600.02,612.13,39.36,0000 0000 0000 0000 000000
2015-12-26 09:39:49,0.17,9.63,0.00,13.14,17.72,21.62,15.18,53.77,1009.25,2067.99,1442.79,1479.07,1645.20,599.89,611.95,39.41,0000 0000 0000 0000 000000
2015-12-26 09:44:51,0.18,9.64,0.00,13.16,17.72,21.65,15.15,53.61,1009.29,2067.99,1441.76,1478.25,1644.32,600.06,612.23,39.46,0000 0000 0000 0000 000000
2015-12-26 09:49:52,0.20,9.65,0.00,13.16,17.74,21.65,15.10,53.45,1009.29,2067.98,1440.60,1477.43,1643.32,600.16,612.38,39.51,0000 0000 0000 0000 000000
2015-12-26 09:54:53,0.19,9.66,0.00,13.17,17.74,21.70,15.05,53.58,1009.29,2067.98,1439.32,1476.62,1642.47,599.80,611.84,39.56,0000 0000 0000 0000 000000
2015-12-26 09:59:55,0.17,9.67,0.00,13.20,17.76,21.62,15.14,53.73,1009.31,2067.99,1437.86,1475.89,1641.61,599.97,611.97,39.61,0000 0000 0000 0000 000000
2015-12-26 10:04:56,0.17,9.68,0.00,13.19,17.77,21.65,15.03,53.89,1009.31,2067.99,1436.75,1475.11,1640.78,599.70,611.76,39.66,0000 0000 0000 0000 000000
2015-12-26 10:09:58,0.17,9.69,0.00,13.20,17.77,21.70,15.11,53.73,1009.39,2067.98,1435.78,1474.32,1639.89,600.09,612.20,39.71,0000 0000 0000 0000 000000
2015-12-26 10:14:59,0.19,9.69,0.00,13.21,17.79,21.73,15.16,53.63,1009.45,2067.95,1434.66,1473.54,1638.98,600.23,612.29,39.76,0000 0000 0000 0000 000000
2015-12-26 10:20:01,0.11,9.70,0.00,13.22,17.79,21.73,15.10,53.67,1009.37,2067.97,1433.82,1472.88,1638.08,599.92,611.88,39.81,0000 0000 0000 0000 000000
2015-12-26 10:25:02,0.16,9.71,0.00,13.23,17.80,21.78,15.11,53.63,1009.31,2067.92,1432.86,1472.05,1637.19,599.87,611.85,39.86,0000 0000 0000 0000 000000
2015-12-26 10:30:03,0.18,9.72,0.00,13.21,17.82,21.74,15.09,53.71,1009.29,2067.87,1431.85,1471.34,1636.37,600.13,612.09,39.91,0000 0000 0000 0000 000000
2015-12-26 10:35:04,0.11,9.73,0.00,13.22,17.82,21.78,15.08,53.47,1009.28,2067.77,1430.83,1470.77,1635.57,600.12,612.07,39.96,0000 0000 0000 0000 000000
2015-12-26 10:40:06,0.13,9.73,0.00,13.22,17.82,21.74,15.22,53.61,1009.24,2067.72,1429.92,1470.04,1634.84,600.43,612.35,40.01,0000 0000 0000 0000 000000
2015-12-26 10:45:07,0.22,9.74,0.00,13.23,17.84,21.79,15.12,53.82,1008.91,2067.65,1428.71,1469.25,1633.84,599.82,611.58,40.06,0000 0000 0000 0000 000000
2015-12-26 10:50:09,0.22,9.75,0.00,13.23,17.84,21.78,15.01,53.92,1008.89,2067.80,1427.59,1468.41,1632.96,599.66,611.32,40.11,0000 0000 0000 0000 000000
2015-12-26 10:55:10,0.25,9.77,0.00,13.24,17.85,21.79,15.12,54.11,1008.81,2067.90,1426.02,1467.28,1631.96,600.11,611.76,40.16,0000 0000 0000 0000 000000
2015-12-26 11:00:10,0.21,9.78,0.00,13.24,17.86,21.73,15.15,54.25,1008.81,2067.90,1424.87,1466.31,1630.78,600.19,611.80,40.22,0000 0000 0000 0000 000000
2015-12-26 11:05:12,0.13,9.79,0.00,13.24,17.87,21.76,15.13,54.33,1008.79,2067.74,1424.00,1465.19,1629.85,600.07,611.69,40.27,0000 0000 0000 0000 000000
2015-12-26 11:10:13,0.21,9.79,0.00,13.23,17.87,21.78,15.13,54.48,1008.80,2067.56,1422.63,1464.32,1628.90,600.00,611.65,40.32,0000 0000 0000 0000 000000
2015-12-26 11:15:14,0.06,9.80,0.00,13.20,17.87,21.81,15.05,54.02,1008.97,2067.46,1421.95,1463.87,1628.03,599.86,611.65,40.37,0000 0000 0000 0000 000000
2015-12-26 11:20:15,0.17,9.81,0.00,13.19,17.87,21.76,15.08,53.78,1009.28,2067.41,1421.13,1463.03,1627.16,600.07,612.12,40.42,0000 0000 0000 0000 000000
2015-12-26 11:25:17,0.22,9.82,0.00,13.18,17.87,21.79,15.12,53.81,1009.06,2067.29,1419.88,1462.08,1626.30,599.98,611.97,40.47,0000 0000 0000 0000 000000
2015-12-26 11:30:18,0.22,9.83,0.00,13.18,17.87,21.79,15.11,53.98,1008.86,2067.39,1418.58,1461.08,1625.28,600.27,612.04,40.52,0000 0000 0000 0000 000000
2015-12-26 11:35:20,0.22,9.84,0.00,13.18,17.88,21.77,15.01,54.14,1008.80,2067.60,1417.33,1460.09,1624.24,599.47,611.10,40.57,0000 0000 0000 0000 000000
2015-12-26 11:40:21,0.19,9.85,0.00,13.19,17.89,21.80,15.10,54.18,1008.72,2067.68,1416.26,1459.51,1623.67,599.67,611.41,40.62,0000 0000 0000 0000 000000
2015-12-26 11:45:23,0.23,9.86,0.00,13.20,17.89,21.79,15.12,54.27,1008.78,2067.69,1415.02,1458.34,1622.40,600.01,611.87,40.67,0000 0000 0000 0000 000000
2015-12-26 11:50:24,0.12,9.87,0.00,13.24,17.89,21.84,15.13,54.13,1008.79,2067.34,1413.99,1457.51,1621.21,600.04,611.68,40.72,0000 0000 0000 0000 000000
2015-12-26 11:55:25,0.15,9.88,0.00,13.24,17.89,21.82,15.07,54.19,1008.79,2067.41,1413.18,1456.87,1620.51,600.28,611.89,40.77,0000 0000 0000 0000 000000
2015-12-26 12:00:27,0.16,9.89,0.00,13.20,17.90,21.75,15.10,54.36,1008.52,2067.46,1412.02,1456.03,1619.61,599.91,611.43,40.82,0000 0000 0000 0000 000000
2015-12-26 12:05:28,0.17,9.89,0.00,13.16,17.90,21.80,15.12,54.33,1008.36,2067.41,1411.16,1455.26,1618.87,599.98,611.54,40.87,0000 0000 0000 0000 000000
2015-12-26 12:10:29,0.19,9.90,0.00,13.17,17.91,21.83,15.07,54.48,1008.30,2067.56,1410.28,1454.56,1617.98,599.80,611.22,40.92,0000 0000 0000 0000 000000
2015-12-26 12:15:30,0.17,9.91,0.00,13.16,17.91,21.75,15.13,54.52,1008.37,2067.52,1409.14,1453.72,1617.09,600.20,611.72,40.97,0000 0000 0000 0000 000000
2015-12-26 12:20:32,0.16,9.92,0.00,13.18,17.92,21.81,15.11,54.61,1008.33,2067.55,1408.26,1453.09,1616.28,599.76,611.20,41.02,0000 0000 0000 0000 000000
2015-12-26 12:25:33,0.21,9.93,0.00,13.21,17.92,21.75,15.13,54.58,1008.28,2067.69,1407.15,1452.32,1615.30,600.00,611.41,41.07,0000 0000 0000 0000 000000
2015-12-26 12:30:35,0.17,9.94,0.00,13.18,17.92,21.77,15.12,54.41,1008.31,2067.83,1406.43,1451.57,1614.48,600.03,611.50,41.13,0000 0000 0000 0000 000000
2015-12-26 12:35:36,0.15,9.95,0.00,13.19,17.92,21.75,15.06,54.39,1008.30,2067.79,1405.58,1450.67,1613.62,600.09,611.41,41.18,0000 0000 0000 0000 000000
2015-12-26 12:40:37,0.14,9.96,0.00,13.19,17.92,21.77,15.17,54.54,1008.32,2067.67,1404.52,1449.98,1612.89,600.15,611.72,41.23,0000 0000 0000 0000 000000
2015-12-26 12:45:39,0.21,9.97,0.00,13.22,17.92,21.75,15.13,54.52,1008.36,2067.70,1403.40,1449.19,1611.99,599.97,611.36,41.28,0000 0000 0000 0000 000000
2015-12-26 12:50:40,0.15,9.97,0.00,13.22,17.92,21.78,15.02,54.60,1008.41,2067.67,1402.49,1448.37,1611.09,599.97,611.39,41.33,0000 0000 0000 0000 000000
2015-12-26 12:55:41,0.12,9.98,0.00,13.22,17.92,21.80,15.09,54.38,1008.40,2067.42,1401.64,1447.66,1610.31,599.95,611.38,41.38,0000 0000 0000 0000 000000